Location: Aalen
(48.8330°N, 10.1000°E)
Time: 17:02:46
(UTC+02:00)

O/OREOS (USA 219) - Visible Passes

Search period start: 01 April 2023 00:00
Search period end: 11 April 2023 00:00
Orbit: 621 x 646 km, 72.0° (Epoch: 22 May)

Date Brightness Start Highest point End Pass type
(mag) Time Alt. Az. Time Alt. Az. Time Alt. Az.
01 Apr ? 05:52:03 10° SSW 05:56:36 65° ESE 06:01:08 10° NNE visible
02 Apr ? 04:36:43 10° SE 04:39:44 17° E 04:42:44 10° ENE visible
02 Apr ? 06:14:07 10° SW 06:18:39 63° WNW 06:23:13 10° NNE visible
03 Apr ? 04:57:23 10° S 05:01:29 35° ESE 05:05:37 10° NE visible
04 Apr ? 05:19:33 14° SSW 05:23:24 72° ESE 05:27:57 10° NNE visible
05 Apr ? 04:04:10 14° SE 04:06:30 19° ESE 04:09:43 10° ENE visible
05 Apr ? 05:41:38 14° SW 05:45:29 57° WNW 05:50:00 10° NNE visible
06 Apr ? 04:26:10 24° SSE 04:28:16 38° ESE 04:32:29 10° NE visible
06 Apr ? 06:03:42 10° WSW 06:07:45 30° NW 06:11:48 10° N visible
07 Apr ? 03:11:34 10° E 03:11:37 10° E 03:11:40 10° E visible
07 Apr ? 04:48:06 32° SSW 04:50:12 79° ESE 04:54:46 10° NNE visible
08 Apr ? 03:32:32 20° ESE 03:33:15 21° ESE 03:36:40 10° NE visible
08 Apr ? 05:10:00 26° SW 05:12:19 52° WNW 05:16:47 10° NNE visible
09 Apr ? 03:54:22 39° SE 03:55:03 42° ESE 03:59:21 10° NE visible
09 Apr ? 05:31:49 16° WSW 05:34:36 28° NW 05:38:33 10° N visible
10 Apr ? 02:38:42 11° E 02:38:42 11° E 02:39:44 10° E visible
10 Apr ? 04:16:09 59° SSW 04:17:01 87° ESE 04:21:35 10° NNE visible
10 Apr ? 05:54:08 10° W 05:57:04 17° NW 06:00:01 10° N visible
